Zurück zum Katalog

METEOR 2-17

AktivWetterPO
NORAD 18820·PAYLOAD·🇷🇺 Russia

Gestartet Jan 30, 1988 von Plesetsk Cosmodrome

Loading…

Nächste Überflüge (nächste 24 Stunden)

TLE

AktuellSource: Space-Track

Epoche: Sep 14, 2026, 10:46 UTC

1 18820U 88005A   26257.44920502  .00000027  00000-0  10665-4 0  9999
2 18820  82.5381 252.5278 0016417 183.9175 329.9897 13.85663819952544

Verfolge METEOR 2-17 in Echtzeit mit AllMySat

Download on the App Store